Regional Weather Roundup
Issued by NWS Charleston, SC

Home | Current Version | Previous Version | Text Only | Print | Product List | Glossary On
Versions: 1 2 3 4 5 6 7 8 9 10 11 12 13 14 15 16 17 18 19 20 21 22 23 24 25 26 27 28 29 30 31 32 33 34 35 36 37 38 39 40 41 42 43 44 45 46 47 48 49 50
686
ASUS42 KCHS 070227
RWRCHS

REGIONAL WEATHER ROUNDUP
NATIONAL WEATHER SERVICE CHARLESTON SC
900 PM EST SAT FEB 06 2016

NOTE: "FAIR" INDICATES FEW OR NO CLOUDS BELOW 12,000 FEET WITH NO
SIGNIFICANT WEATHER AND/OR OBSTRUCTIONS TO VISIBILITY.

NOT ALL STATIONS ARE QUALITY CONTROLLED BY THE NATIONAL
WEATHER SERVICE. USE DATA WITH CAUTION...ESPECIALLY
DEWPOINT OBSERVATIONS.

NOTICE: OBSERVATIONS FOR THE SAVANNAH-HILTON HEAD INTERNATIONAL AIRPORT
/KSAV/ HAVE BEEN TEMPORARILY REMOVED DUE TO AN ERRONEOUS TEMPERATURE
SENSOR. THE OBSERVATION WILL BE REINTRODUCED ONCE REPAIRS ARE COMPLETE.

SCZ027-030-031-034>040-042>050-070300-
...SOUTHEAST SOUTH CAROLINA...

CITY           SKY/WX    TMP DP  RH WIND       PRES   REMARKS
N CHARLESTON   LGT RAIN  43  36  76 NE14      30.18F
WATERFRONT PRK   N/A     44  41  89 N15       30.04F
MOUNT PLEASANT MOCLDY    43  39  87 N9G17     30.17F
JOHNS ISLAND   CLOUDY    43  39  87 N14G22    30.16F
PINOPOLIS        N/A     46  34  61 NE16      30.13F
MONCKS CORNER  RAIN      39  32  75 N6        30.21S WCI  35
SUMMERVILLE    RAIN      43  37  81 N6        30.22R
BEAUFORT MCAS  RAIN      43  39  86 N15       30.20S FOG
BEAUFORT ARPT  RAIN      43  41  93 N10       30.19R
HILTON HEAD IS HVY RAIN  43  43 100 N16G25    30.20R
WALTERBORO     RAIN      43  39  87 CALM      30.22R
ALLENDALE      CLOUDY    43  36  75 N6        30.20F

...SOUTHERN MIDLANDS AND PEE DEE...

CITY           SKY/WX    TMP DP  RH WIND       PRES   REMARKS
GEORGETOWN     NOT AVBL
KINGSTREE      NOT AVBL
ORANGEBURG     CLOUDY    44  32  62 NE8       30.22F
BARNWELL       CLOUDY    43  37  81 CALM      30.23S
AIKEN          CLOUDY    43  32  65 CALM      30.26R
MANNING        DRIZZLE   41  32  70 N7        30.23F
COLUMBIA       CLOUDY    49  24  37 NE9       30.21F
SUMTER         CLOUDY    43  31  63 NE15      30.19F
FLORENCE       LGT RAIN  44  32  62 N5        30.25F
MYRTLE BEACH   CLOUDY    45  28  53 N12       30.21F
N MYRTLE BEACH LGT RAIN  44  32  62 N10       30.19F

$$

GAZ063-065-086>088-099>101-113>116-118-119-134>141-150-070300-
...SOUTHEAST GEORGIA...

CITY           SKY/WX    TMP DP  RH WIND       PRES   REMARKS
SAVANNAH ARPT  RAIN      41  38  89 N12       30.19S FOG
HUNTER AAF     RAIN      41  39  93 N14       30.15S
FORT STEWART   RAIN      41  38  90 N9        30.15F
STATESBORO     CLOUDY    44  38  79 NE7       30.20F
SYLVANIA       CLOUDY    42  40  91 NE8       30.21F
CLAXTON        DRIZZLE   42  40  95 N8        30.19F

...CSRA...CENTRAL AND FAR SOUTHEAST GEORGIA...

CITY           SKY/WX    TMP DP  RH WIND       PRES   REMARKS
THOMSON        CLOUDY    47  34  60 CALM      30.25F
AUGUSTA-BUSH   LGT RAIN  42  36  79 E3        30.24S
AUGUSTA-DANIEL CLOUDY    45  30  55 SE6       30.23F
SWAINSBORO     LGT RAIN  41  36  81 NE5       30.22F
VIDALIA        DRIZZLE   41  37  87 NE6       30.20F
EASTMAN        CLOUDY    43  34  70 NE6       30.23S
HAZLEHURST     DRIZZLE   41  40  95 NE7       30.17F
ALMA           CLOUDY    40  39  97 N8        30.18F WCI  34
WAYCROSS       RAIN      44  43  98 NE12G17   30.15F
JESUP          CLOUDY    43  43 100 NE12      30.15F
BAXLEY         LGT RAIN  41  41 100 N9G16     30.18S
BRUNSWICK      RAIN      43  41  93 N10G17    30.13F
SAINT SIMONS   LGT RAIN  42  41  96 N14G22    30.12S FOG

$$

SCZ027-028-034-036>038-045-046-048>050-GAZ119-141-070300-
...LAKE AND SUPPLEMENTAL COASTAL OBSERVATIONS...

STATION/POSITION TIME  TEMP    WIND        PRES    WAVE   SWELL
                       AIR SEA DIR/SP/G            HT/PER HT/PER/DIR
                 (UTC) (F)     (DEG/KT/KT) (MB)    (FT/S) (FT/S/D)
WINYAH BAY       0100   43      30/  7     1022.0
LAKE MURRAY      0100   48      50/  4/  8 1022.7F
ACE BASIN NERRS  0100   43      20/  4     1022.0S
FORT PULASKI     0200   42 54  350/ 13/ 18 1021.7R
SAPELO ISLAND    0200   44     350/ 16     1020.0S

$$

ANZ835-935-AMZ111-154-330-350-352-354-370-450-454-472-070300-
...C-MAN AND BUOY OBSERVATIONS...

STATION/POSITION TIME  TEMP    WIND        PRES    WAVE   SWELL
                       AIR SEA DIR/SP/G            HT/PER HT/PER/DIR
                 (UTC) (F)     (DEG/KT/KT) (MB)    (FT/S) (FT/S/D)
BUOY 41004       0150   52 64   10/ 27/ 31 1019.5F   7/ 6   3/10
BUOY 41008       0150   49 56   20/ 25/ 31 1018.7F   7/ 6   2/ 80/10
FOLLY BEACH CMAN 0200   43      10/ 20/ 23 1021.3F
CAPERS NEARSHORE 0108   45      30/ 21/ 27 1022.0F
FRIPP NEARSHORE  0100   46      20/ 21/ 27 1020.9F


STATION/POSITION TIME  TEMP    WIND        PRES    WAVE   SWELL
                       AIR SEA DIR/SP/G            HT/PER HT/PER/DIR
                 (UTC) (F)     (DEG/KT/KT) (MB)    (FT/S) (FT/S/D)
5E ST. MARYS GA  0121      57                N/A     7/ 7   2/100/11
FRYING PAN BUOY  0200   55 68   20/ 23/ 29 1021.1F
BUOY 41025       0150   53 71  360/ 21/ 25 1023.8F   6/11   3/ 90/11
CAPE LOOKOUT NC  NOT AVBL
BUOY 41002       0150   63 69  100/ 16/ 19   N/A     7/11   7/ 20/11
BUOY 41010       0120   66 75              1016.4F
ST AUGUSTINE FL  0200   52 58  350/ 30/ 34 1017.8F


$$




USA.gov is the U.S. government's official web portal to all federal, state and local government web resources and services.